Time,TemperatureF,DewpointF,PressureIn,WindDirection,WindDirectionDegrees,WindSpeedMPH,WindSpeedGustMPH,Humidity,HourlyPrecipIn,Conditions,Clouds,dailyrainin,SoftwareType,DateUTC
2013-07-10 00:09:00,72.8,72.0,29.87,SW,226,4.0,6.0,96,0.00,,,0.00,weatherlink.com 1.10,2013-07-10 04:09:00,
2013-07-10 00:24:00,72.8,72.0,29.86,SSE,163,2.0,4.0,96,0.00,,,0.00,weatherlink.com 1.10,2013-07-10 04:24:00,
2013-07-10 00:39:00,73.1,72.0,29.85,West,279,0.0,6.0,97,0.00,,,0.00,weatherlink.com 1.10,2013-07-10 04:39:00,
2013-07-10 00:54:00,73.2,72.0,29.85,South,181,2.0,4.0,96,0.00,,,0.00,weatherlink.com 1.10,2013-07-10 04:54:00,
2013-07-10 01:09:00,73.3,72.0,29.85,SSW,211,2.0,6.0,96,0.00,,,0.00,weatherlink.com 1.10,2013-07-10 05:09:00,
2013-07-10 01:24:00,73.6,72.0,29.84,SSE,159,6.0,7.0,95,0.00,,,0.00,weatherlink.com 1.10,2013-07-10 05:24:00,
2013-07-10 01:39:00,73.7,72.0,29.84,SSW,205,6.0,6.0,95,0.00,,,0.00,weatherlink.com 1.10,2013-07-10 05:39:00,
2013-07-10 01:54:00,73.9,72.0,29.84,WSW,254,3.0,10.0,94,0.00,,,0.00,weatherlink.com 1.10,2013-07-10 05:54:00,
2013-07-10 02:09:00,74.0,72.0,29.84,West,272,3.0,10.0,94,0.00,,,0.00,weatherlink.com 1.10,2013-07-10 06:09:00,
2013-07-10 02:24:00,74.0,72.0,29.83,SSE,153,1.0,13.0,93,0.00,,,0.00,weatherlink.com 1.10,2013-07-10 06:24:00,
2013-07-10 02:40:00,73.7,72.0,29.83,WNW,292,2.0,9.0,94,0.00,,,0.00,weatherlink.com 1.10,2013-07-10 06:40:00,
2013-07-10 02:55:00,73.5,72.0,29.83,West,277,3.0,9.0,94,0.00,,,0.00,weatherlink.com 1.10,2013-07-10 06:55:00,
2013-07-10 03:10:00,73.5,72.0,29.83,SSW,193,7.0,8.0,94,0.00,,,0.00,weatherlink.com 1.10,2013-07-10 07:10:00,
2013-07-10 03:25:00,73.5,72.0,29.83,West,267,3.0,5.0,95,0.00,,,0.00,weatherlink.com 1.10,2013-07-10 07:25:00,
2013-07-10 03:40:00,73.3,72.0,29.83,SW,219,2.0,5.0,95,0.00,,,0.00,weatherlink.com 1.10,2013-07-10 07:40:00,
2013-07-10 03:55:00,73.4,72.0,29.83,SW,220,1.0,5.0,95,0.00,,,0.00,weatherlink.com 1.10,2013-07-10 07:55:00,
2013-07-10 04:10:00,73.5,72.0,29.83,SW,223,0.0,5.0,95,0.00,,,0.00,weatherlink.com 1.10,2013-07-10 08:10:00,
2013-07-10 04:25:00,73.5,72.0,29.83,WSW,254,5.0,6.0,96,0.00,,,0.00,weatherlink.com 1.10,2013-07-10 08:25:00,
2013-07-10 04:40:00,73.5,72.0,29.82,SSW,193,0.0,5.0,96,0.00,,,0.00,weatherlink.com 1.10,2013-07-10 08:40:00,
2013-07-10 04:55:00,73.7,73.0,29.82,WNW,299,5.0,7.0,96,0.00,,,0.00,weatherlink.com 1.10,2013-07-10 08:55:00,
2013-07-10 05:10:00,73.8,73.0,29.82,SSW,207,6.0,6.0,96,0.00,,,0.00,weatherlink.com 1.10,2013-07-10 09:10:00,
2013-07-10 05:25:00,74.2,73.0,29.82,SW,234,3.0,8.0,96,0.00,,,0.00,weatherlink.com 1.10,2013-07-10 09:25:00,
2013-07-10 05:40:00,74.4,73.0,29.82,WSW,256,2.0,8.0,95,0.00,,,0.00,weatherlink.com 1.10,2013-07-10 09:40:00,
2013-07-10 05:55:00,74.3,73.0,29.82,WSW,255,1.0,7.0,96,0.00,,,0.00,weatherlink.com 1.10,2013-07-10 09:55:00,
2013-07-10 06:10:00,74.3,73.0,29.82,WSW,251,2.0,7.0,96,0.00,,,0.00,weatherlink.com 1.10,2013-07-10 10:10:00,
2013-07-10 06:25:00,74.4,73.0,29.82,SW,227,1.0,7.0,96,0.00,,,0.00,weatherlink.com 1.10,2013-07-10 10:25:00,
2013-07-10 06:40:00,74.4,73.0,29.82,West,267,4.0,6.0,96,0.00,,,0.00,weatherlink.com 1.10,2013-07-10 10:40:00,
2013-07-10 06:55:00,74.6,73.0,29.83,SSW,201,1.0,7.0,95,0.00,,,0.00,weatherlink.com 1.10,2013-07-10 10:55:00,
2013-07-10 07:10:00,74.9,73.0,29.83,NW,309,1.0,7.0,95,0.00,,,0.00,weatherlink.com 1.10,2013-07-10 11:10:00,
2013-07-10 07:25:00,75.1,74.0,29.83,West,278,2.0,7.0,95,0.00,,,0.00,weatherlink.com 1.10,2013-07-10 11:25:00,
2013-07-10 07:40:00,75.3,74.0,29.83,SW,229,1.0,6.0,95,0.00,,,0.00,weatherlink.com 1.10,2013-07-10 11:40:00,
2013-07-10 07:55:00,75.5,74.0,29.83,WNW,291,4.0,8.0,94,0.00,,,0.00,weatherlink.com 1.10,2013-07-10 11:55:00,
2013-07-10 08:10:00,76.3,75.0,29.82,WSW,237,6.0,10.0,94,0.00,,,0.00,weatherlink.com 1.10,2013-07-10 12:10:00,
2013-07-10 08:25:00,76.7,75.0,29.82,SW,217,3.0,8.0,93,0.00,,,0.00,weatherlink.com 1.10,2013-07-10 12:25:00,
2013-07-10 08:40:00,77.2,75.0,29.83,WNW,288,4.0,11.0,92,0.00,,,0.00,weatherlink.com 1.10,2013-07-10 12:40:00,
2013-07-10 08:55:00,77.5,75.0,29.82,West,268,2.0,7.0,92,0.00,,,0.00,weatherlink.com 1.10,2013-07-10 12:55:00,
2013-07-10 09:10:00,78.2,75.0,29.83,SW,222,3.0,10.0,91,0.00,,,0.00,weatherlink.com 1.10,2013-07-10 13:10:00,
2013-07-10 09:25:00,79.0,76.0,29.83,SW,234,7.0,11.0,90,0.00,,,0.00,weatherlink.com 1.10,2013-07-10 13:25:00,
2013-07-10 09:40:00,79.5,76.0,29.83,West,261,3.0,12.0,89,0.00,,,0.00,weatherlink.com 1.10,2013-07-10 13:40:00,
2013-07-10 09:55:00,79.8,76.0,29.83,SW,223,2.0,9.0,89,0.00,,,0.00,weatherlink.com 1.10,2013-07-10 13:55:00,
2013-07-10 10:10:00,80.5,77.0,29.82,WSW,257,5.0,11.0,88,0.00,,,0.00,weatherlink.com 1.10,2013-07-10 14:10:00,
2013-07-10 10:25:00,81.0,77.0,29.82,SSW,204,4.0,10.0,87,0.00,,,0.00,weatherlink.com 1.10,2013-07-10 14:25:00,
2013-07-10 10:40:00,81.3,77.0,29.82,WSW,240,2.0,12.0,87,0.00,,,0.00,weatherlink.com 1.10,2013-07-10 14:40:00,
2013-07-10 10:56:00,82.0,78.0,29.81,SW,227,2.0,7.0,86,0.00,,,0.00,weatherlink.com 1.10,2013-07-10 14:56:00,
2013-07-10 11:11:00,82.4,77.0,29.80,WNW,287,2.0,12.0,84,0.00,,,0.00,weatherlink.com 1.10,2013-07-10 15:11:00,
2013-07-10 11:26:00,83.2,78.0,29.80,South,187,4.0,8.0,83,0.00,,,0.00,weatherlink.com 1.10,2013-07-10 15:26:00,
2013-07-10 11:41:00,83.1,77.0,29.80,West,269,7.0,10.0,82,0.00,,,0.00,weatherlink.com 1.10,2013-07-10 15:41:00,
2013-07-10 11:56:00,83.4,77.0,29.79,SE,142,4.0,6.0,82,0.00,,,0.00,weatherlink.com 1.10,2013-07-10 15:56:00,
2013-07-10 12:11:00,83.8,77.0,29.80,SSW,192,3.0,10.0,81,0.00,,,0.00,weatherlink.com 1.10,2013-07-10 16:11:00,
2013-07-10 12:26:00,83.8,77.0,29.79,SW,224,4.0,9.0,81,0.00,,,0.00,weatherlink.com 1.10,2013-07-10 16:26:00,
2013-07-10 12:41:00,84.5,77.0,29.78,SW,223,3.0,10.0,79,0.00,,,0.00,weatherlink.com 1.10,2013-07-10 16:41:00,
2013-07-10 12:56:00,84.0,77.0,29.79,SW,236,2.0,7.0,79,0.00,,,0.00,weatherlink.com 1.10,2013-07-10 16:56:00,
2013-07-10 13:11:00,83.2,76.0,29.78,SSW,211,2.0,7.0,80,0.00,,,0.00,weatherlink.com 1.10,2013-07-10 17:11:00,
2013-07-10 13:26:00,81.6,76.0,29.78,SW,224,1.0,5.0,84,0.01,,,0.01,weatherlink.com 1.10,2013-07-10 17:26:00,
2013-07-10 13:41:00,80.0,77.0,29.77,SSE,151,1.0,3.0,90,0.05,,,0.05,weatherlink.com 1.10,2013-07-10 17:41:00,
2013-07-10 13:56:00,78.8,77.0,29.80,WNW,290,1.0,2.0,94,0.11,,,0.11,weatherlink.com 1.10,2013-07-10 17:56:00,
2013-07-10 14:11:00,78.5,76.0,29.79,WSW,242,1.0,3.0,93,0.14,,,0.14,weatherlink.com 1.10,2013-07-10 18:11:00,
2013-07-10 14:26:00,77.5,74.0,29.77,ESE,103,1.0,6.0,88,0.13,,,0.14,weatherlink.com 1.10,2013-07-10 18:26:00,
2013-07-10 14:41:00,75.9,73.0,29.80,NE,34,0.0,2.0,90,0.06,,,0.14,weatherlink.com 1.10,2013-07-10 18:41:00,
2013-07-10 14:56:00,73.7,71.0,29.79,WSW,247,3.0,3.0,91,0.03,,,0.14,weatherlink.com 1.10,2013-07-10 18:56:00,
2013-07-10 15:11:00,72.2,69.0,29.82,WSW,254,2.0,7.0,90,0.00,,,0.14,weatherlink.com 1.10,2013-07-10 19:11:00,
2013-07-10 15:26:00,72.1,68.0,29.82,SW,233,8.0,16.0,88,0.00,,,0.14,weatherlink.com 1.10,2013-07-10 19:26:00,
2013-07-10 15:41:00,70.6,67.0,29.81,West,262,6.0,13.0,87,0.00,,,0.14,weatherlink.com 1.10,2013-07-10 19:41:00,
2013-07-10 15:56:00,70.2,67.0,29.80,West,274,4.0,12.0,89,0.00,,,0.14,weatherlink.com 1.10,2013-07-10 19:56:00,
2013-07-10 16:11:00,70.2,67.0,29.80,WNW,292,3.0,10.0,88,0.00,,,0.14,weatherlink.com 1.10,2013-07-10 20:11:00,
2013-07-10 16:26:00,70.5,67.0,29.79,WNW,297,3.0,11.0,89,0.00,,,0.14,weatherlink.com 1.10,2013-07-10 20:26:00,
2013-07-10 16:41:00,71.6,67.0,29.79,WSW,242,9.0,16.0,86,0.00,,,0.14,weatherlink.com 1.10,2013-07-10 20:41:00,
2013-07-10 16:56:00,73.1,69.0,29.78,SW,227,13.0,15.0,86,0.00,,,0.14,weatherlink.com 1.10,2013-07-10 20:56:00,
2013-07-10 17:11:00,74.3,69.0,29.78,WSW,248,13.0,14.0,84,0.00,,,0.14,weatherlink.com 1.10,2013-07-10 21:11:00,
2013-07-10 17:26:00,75.7,70.0,29.77,NW,304,12.0,18.0,83,0.00,,,0.14,weatherlink.com 1.10,2013-07-10 21:26:00,
2013-07-10 17:41:00,76.9,71.0,29.77,SSW,207,6.0,12.0,83,0.00,,,0.14,weatherlink.com 1.10,2013-07-10 21:41:00,
2013-07-10 17:56:00,79.4,73.0,29.77,SW,215,6.0,11.0,81,0.00,,,0.14,weatherlink.com 1.10,2013-07-10 21:56:00,
2013-07-10 18:11:00,80.5,74.0,29.77,WSW,241,3.0,12.0,80,0.00,,,0.14,weatherlink.com 1.10,2013-07-10 22:11:00,
2013-07-10 18:26:00,81.2,73.0,29.77,West,279,2.0,13.0,75,0.00,,,0.14,weatherlink.com 1.10,2013-07-10 22:26:00,
2013-07-10 18:41:00,81.3,71.0,29.78,West,260,2.0,9.0,72,0.00,,,0.14,weatherlink.com 1.10,2013-07-10 22:41:00,
2013-07-10 18:56:00,80.7,69.0,29.78,WSW,241,2.0,7.0,67,0.00,,,0.14,weatherlink.com 1.10,2013-07-10 22:56:00,
2013-07-10 19:11:00,80.6,68.0,29.79,SW,215,2.0,8.0,66,0.00,,,0.14,weatherlink.com 1.10,2013-07-10 23:11:00,
2013-07-10 19:26:00,79.7,69.0,29.80,SW,217,6.0,7.0,69,0.00,,,0.14,weatherlink.com 1.10,2013-07-10 23:26:00,
2013-07-10 19:41:00,78.8,67.0,29.81,NNW,348,2.0,5.0,67,0.00,,,0.14,weatherlink.com 1.10,2013-07-10 23:41:00,
2013-07-10 19:56:00,78.2,67.0,29.82,North,355,3.0,10.0,68,0.00,,,0.14,weatherlink.com 1.10,2013-07-10 23:56:00,
2013-07-10 20:11:00,77.1,66.0,29.82,NNE,24,0.0,5.0,68,0.00,,,0.14,weatherlink.com 1.10,2013-07-11 00:11:00,
2013-07-10 20:26:00,76.1,65.0,29.84,NNW,329,1.0,5.0,69,0.00,,,0.14,weatherlink.com 1.10,2013-07-11 00:26:00,
2013-07-10 20:41:00,75.1,66.0,29.84,ENE,73,2.0,5.0,73,0.00,,,0.14,weatherlink.com 1.10,2013-07-11 00:41:00,
2013-07-10 20:56:00,74.2,65.0,29.85,NE,38,2.0,3.0,73,0.00,,,0.14,weatherlink.com 1.10,2013-07-11 00:56:00,
2013-07-10 21:11:00,73.2,65.0,29.86,NE,48,1.0,3.0,76,0.00,,,0.14,weatherlink.com 1.10,2013-07-11 01:11:00,
2013-07-10 21:26:00,72.5,64.0,29.86,NNE,19,2.0,4.0,75,0.00,,,0.14,weatherlink.com 1.10,2013-07-11 01:26:00,
2013-07-10 21:41:00,71.7,64.0,29.87,NNW,344,1.0,3.0,77,0.00,,,0.14,weatherlink.com 1.10,2013-07-11 01:41:00,
2013-07-10 21:56:00,70.8,64.0,29.88,NE,39,1.0,2.0,79,0.00,,,0.14,weatherlink.com 1.10,2013-07-11 01:56:00,
2013-07-10 22:12:00,69.7,64.0,29.89,NE,39,1.0,2.0,81,0.00,,,0.14,weatherlink.com 1.10,2013-07-11 02:12:00,
2013-07-10 22:27:00,69.0,65.0,29.90,NE,39,1.0,2.0,87,0.00,,,0.14,weatherlink.com 1.10,2013-07-11 02:27:00,
2013-07-10 22:42:00,68.6,64.0,29.91,WNW,296,0.0,3.0,86,0.00,,,0.14,weatherlink.com 1.10,2013-07-11 02:42:00,
2013-07-10 22:57:00,68.6,63.0,29.91,NNW,337,1.0,2.0,81,0.00,,,0.14,weatherlink.com 1.10,2013-07-11 02:57:00,
2013-07-10 23:12:00,68.0,62.0,29.91,NNW,332,0.0,1.0,82,0.00,,,0.14,weatherlink.com 1.10,2013-07-11 03:12:00,
2013-07-10 23:27:00,67.2,62.0,29.92,NNW,332,0.0,1.0,83,0.00,,,0.14,weatherlink.com 1.10,2013-07-11 03:27:00,
2013-07-10 23:42:00,66.4,62.0,29.92,NNW,332,0.0,1.0,84,0.00,,,0.14,weatherlink.com 1.10,2013-07-11 03:42:00,
2013-07-10 23:57:00,66.0,62.0,29.93,NNW,332,0.0,1.0,87,0.00,,,0.14,weatherlink.com 1.10,2013-07-11 03:57:00,